Velovelo
Português Nederlands 日本語 中文
Español English čeština slovenčina
русский italiano polski norsk
français Deutsch svenska عربي
 
 vorige pagina
 Stuur naar een vriend
 Print dit artikel
 ---> Etape du Tour 1 - 2012 : du 3001ème au 4000ème

Voir nos deux reportages-photos du Village et de la Course du dimanche

Cl...Dos.NomPrénomCat.C.cTemps..Montées
3001 1647 VANBERLEERE Arnaud C 1075 10:10:16 6:56:55
3002 5853 BORDELOT Bertrand A 307 10:10:16 7:05:30
3003 5309 FRAMINET Stéphane C 1076 10:10:17 7:12:56
3004 5185 NIELANDER Arnaldo D 607 10:10:20 7:20:38
3005 7147 SIMON Florent B 744 10:10:21 6:42:30
3006 3381 OTTAN Jean François D 608 10:10:21 7:14:54
3007 5332 ROUILLER Jean-Pierre D 609 10:10:23 7:09:43
3008 8953 CIMMINO Antonio C 1077 10:10:24 7:13:46
3009 5840 JOHNSON Lyndon C 1078 10:10:32 7:21:41
3010 9557 DECHELLE Olivier B 745 10:10:36 6:27:03
3011 2875 PIKE Joseph B 746 10:10:37 6:57:53
3012 3999 CASSOLI Jair B 747 10:10:44 6:48:48
3013 8371 WELLS Graham C 1079 10:10:47 6:23:40
3014 7562 SHEPHERD Chris B 748 10:10:51 7:17:33
3015 9672 FIORIN Gianpiero B 749 10:10:52 6:54:10
3016 1956 THOMAS Stan D 610 10:10:53 7:34:44
3017 4656 TUMANG Renato C 1080 10:10:59 6:33:41
3018 4024 FORAN Paul B 750 10:11:03 6:28:55
3019 5946 PHILLIPS Philip C 1081 10:11:04 7:07:27
3020 8344 OGORZALEK Jan B 751 10:11:04 7:04:50
3021 2829 GIBOUT Robert E 188 10:11:08 7:08:55
3022 8920 WALLIS Mark C 1082 10:11:18 6:59:10
3023 7318 HUMBERT David C 1083 10:11:20 6:54:12
3024 6376 TUAL Jerpme B 752 10:11:27 6:56:46
3025 5857 TUAL Mickael B 753 10:11:30 6:50:39
3026 6021 BASTIN Eric B 754 10:11:32 6:32:53
3027 1904 CASTEL Pierre E 189 10:11:33 7:30:10
3028 5829 PAGET Michael C 1084 10:11:34 7:18:41
3029 1722 GRELOT Amaury A 308 10:11:34 7:23:28
3030 5102 JONES Simon B 755 10:11:44 6:47:31
3031 2862 LALLEMAND Yves D 611 10:11:46 6:47:50
3032 9734 CHAPPATTE Olivier D 612 10:11:48 7:29:52
3033 5061 TRACEY John C 1085 10:11:51 6:50:09
3034 7707 GASNIER Joel D 613 10:11:55 7:06:59
3035 2931 QUINN Eamonn C 1086 10:11:55 7:03:14
3036 5725 LANDRAIN Eric C 1087 10:11:58 6:43:47
3037 7882 BIBOLLET Philippe C 1088 10:12:00 7:04:32
3038 9065 HEALY Calvin B 756 10:12:01 7:05:35
3039 6996 HEGER Jerome C 1089 10:12:02 6:43:18
3040 9044 LEMAITRE Philippe C 1090 10:12:02 6:29:27
3041 9726 TACKABERRY Christopher C 1091 10:12:11 7:02:41
3042 9421 RIFF Fabien B 757 10:12:14 7:10:40
3043 9446 HINES Francis E 190 10:12:24 7:12:27
3044 3264 CAMPAGNOLI Vincent C 1092 10:12:30 7:13:29
3045 6548 JURIS Parups A 309 10:12:34 7:02:18
3046 7311 CHOULIER Vincent B 758 10:12:36 6:46:54
3047 2841 CORMIER Jean Paul E 191 10:12:39 7:13:10
3048 8133 JOURDIL Frederic D 614 10:12:40 7:13:21
3049 6414 BAILLARGEAU Stéphane C 1093 10:12:44 6:49:02
3050 5017 ROGERS M. Kelly D 615 10:12:45 6:20:37
3051 5887 NORRIS Stephen B 759 10:12:46 7:04:59
3052 4631 BONOMI Serge D 616 10:12:59 6:36:22
3053 202 SEIGNOL Allan C 1094 10:13:05 7:32:01
3054 289 PINE Jamie B 760 10:13:07 7:21:35
3055 9668 MCNUFF Anna F 35 10:13:07 7:21:52
3056 8125 RUTLAND Simon B 761 10:13:09 7:07:51
3057 4685 FAIVRE Patrick D 617 10:13:15 7:01:13
3058 9614 DUQUEUX Roland D 618 10:13:16 6:55:02
3059 5958 LAGUETRE Christophe B 762 10:13:25 6:59:20
3060 723 RODD Carina F 36 10:13:25 7:13:18
3061 3799 COVILLE Christophe E 192 10:13:32 7:18:06
3062 4785 BIDEWELL James D 619 10:13:34 7:12:00
3063 8378 LONG Philip D 620 10:13:47 6:55:41
3064 7767 RAGGETT Jonathan C 1095 10:13:56 7:09:02
3065 1450 CASTANIER Michel D 621 10:13:56 7:20:05
3066 3167 CARAZ Nathalie G 51 10:13:56 7:25:51
3067 5238 HOOD Julian C 1096 10:13:57 7:13:41
3068 5239 LIVESEY Graham B 763 10:13:58 7:13:40
3069 6946 CAMPIN Richard D 622 10:14:04 7:20:40
3070 2274 MORTON Jean-Philippe B 764 10:14:07 7:23:16
3071 1278 MORONI Gianluigi C 1097 10:14:10 7:24:57
3072 4558 JACQUEMET Valentin A 310 10:14:15 6:55:28
3073 4002 CHRETIEN Jean Michel E 193 10:14:26 7:05:48
3074 5688 TYKESSON Anders B 765 10:14:28 7:02:58
3075 6464 MATOS Rogerio C 1098 10:14:30 7:00:28
3076 6415 LAVILLE Antoine A 311 10:14:31 6:56:37
3077 2350 RODRIGUES DA CRUZ Ana Clara F 37 10:14:33 7:07:17
3078 2182 STRAZZABOSCHI Eric D 623 10:14:33 6:41:01
3079 3504 CHARLE Christophe C 1099 10:14:34 7:25:20
3080 8463 CALVER Paul B 766 10:14:35 7:10:08
3081 9552 MÉLINAND Philippe B 767 10:14:36 7:06:45
3082 3478 SAWAYA Tsuneaki C 1100 10:14:37 7:14:53
3083 5044 HIEMSTRA Sarel C 1101 10:14:38 6:56:38
3084 2285 LE VELY David C 1102 10:14:41 7:30:14
3085 2683 DAUDOU Patrick D 624 10:14:44 7:41:04
3086 2671 AUDOUIN Michel D 625 10:14:44 7:22:21
3087 4624 THIBAULT Serge C 1103 10:14:49 7:33:03
3088 2025 HOYAU Patrick E 194 10:14:50 7:25:45
3089 8342 PRIOR Martin C 1104 10:14:57 7:20:16
3090 7293 CONTEJEAN Alain C 1105 10:14:58
3091 3851 PELLERIN Lionel B 768 10:15:00 5:57:06
3092 5212 BODIN Jean-Pierre D 626 10:15:04 7:02:01
3093 2889 GONNON Dominique E 195 10:15:04 6:57:49
3094 3248 JEANJEAN Richard B 769 10:15:05 7:12:29
3095 1632 FONG William C 1106 10:15:09 7:13:52
3096 7789 WOODWARD Marc B 770 10:15:10
3097 3920 BROOKS Roger D 627 10:15:17 7:04:31
3098 7032 PHILIPCZYK Jean Louis D 628 10:15:19 7:08:55
3099 2298 TOURRIERE William C 1107 10:15:23 7:09:42
3100 4194 GORON Bernard E 196 10:15:28 7:03:14
3101 6934 PAGE Steve C 1108 10:15:30 6:52:40
3102 5345 CARRADORE Anthony A 312 10:15:33 6:41:47
3103 4134 DONZEL Gilles D 629 10:15:38 7:04:48
3104 4110 VALAT Jean-Charles C 1109 10:15:44 7:02:06
3105 8255 PETTINA Jean Marc D 630 10:15:47 7:24:03
3106 4539 HARPER Tom B 771 10:15:49 6:56:26
3107 4541 HAEGHEBAERT Philippe B 772 10:15:54 6:37:20
3108 5241 BROWN Graeme A 313 10:15:55 6:05:00
3109 4734 BROWN Andrew A 314 10:15:56 6:12:00
3110 4465 CRAGGS Graham C 1110 10:16:05 7:04:05
3111 3555 LEVROT Christian D 631 10:16:15 7:16:14
3112 1407 HIRAUX Emmanuel C 1111 10:16:22 7:12:16
3113 7052 COLLARD Jean-Louis B 773 10:16:27 7:07:59
3114 3927 NAZON Jerome B 774 10:16:33 7:05:31
3115 1544 BRIASCO Giuseppe B 775 10:16:33 7:44:43
3116 6626 COTTON Simon B 776 10:16:38 7:05:50
3117 6623 COTTON Matthew B 777 10:16:40 7:03:58
3118 2534 SITNIKOV Nikolai A 315 10:16:43 7:04:25
3119 6491 WEYNBERG Will A 316 10:16:44 7:05:14
3120 8942 PALLUD Jérôme B 778 10:16:49 6:58:10
3121 7533 BURDEN Edwin B 779 10:16:50 6:53:37
3122 5243 IBANEZ Jean Marie C 1112 10:16:53 6:57:29
3123 2915 BOUTEILLER Daniel E 197 10:16:54 7:26:03
3124 4399 PERRET Philippe C 1113 10:17:04 6:35:40
3125 5744 GATENBY Martin C 1114 10:17:08 7:04:07
3126 4795 BREMAUD Albert E 198 10:17:11 7:17:22
3127 9197 BRAY Lee B 780 10:17:18 7:15:07
3128 7646 TERRIER Vincent C 1115 10:17:18 6:38:03
3129 4193 BERTRAND Jean Jacques E 199 10:17:22 7:13:12
3130 6053 BAGNE Romain B 781 10:17:24 7:08:59
3131 6591 QUEHEN Matthieu B 782 10:17:24 6:30:56
3132 5660 VASNIER CHRISTIAN Christian D 632 10:17:30 7:25:01
3133 7112 WARD John C 1116 10:17:34 6:42:10
3134 3311 DISLEY Peter B 783 10:17:42 7:06:40
3135 7690 DELABRE Alexandre C 1117 10:17:52 7:15:25
3136 8312 FAIVRE Pierre E 200 10:17:53
3137 3484 NOUVET Kevin A 317 10:17:54 7:11:21
3138 3485 NOUVET Didier C 1118 10:17:55 7:10:17
3139 9558 BOURREAU Cyrille B 784 10:17:59 6:49:58
3140 5339 FERRIER Bernard E 201 10:18:02 7:17:52
3141 5941 HOGG Nicholas C 1119 10:18:03 6:49:26
3142 217 FAURE Martine G 52 10:18:11 7:39:05
3143 3220 DRIANO Maria G 53 10:18:27
3144 5860 BARTUCCIO Teodoro B 785 10:18:30 7:11:25
3145 6961 GOOCH Alfred C 1120 10:18:31 7:12:38
3146 7932 MARK Wyatt C 1121 10:18:35 6:39:42
3147 6910 MCNAMEE Shaun C 1122 10:18:45 6:40:48
3148 5100 ROUSSELAT Gerard E 202 10:18:48 7:33:15
3149 5368 CAREY Terence C 1123 10:18:49 7:07:36
3150 7077 MELONI Gautier B 786 10:18:49 7:06:04
3151 5304 VASSEUR Guy D 633 10:18:52 7:17:41
3152 8253 FOX Patrick B 787 10:18:54 7:07:22
3153 6518 ROBERTS Wiliam D 634 10:18:59 7:08:44
3154 4836 MIDDLETON David C 1124 10:19:01 7:07:02
3155 8598 LANARD Benoit A 318 10:19:04 7:10:32
3156 4722 SCHAMELHOUT Jean-Gabriel E 203 10:19:09 7:07:16
3157 7850 O’SHEA Peter D 635 10:19:10 7:04:07
3158 2712 TART Simon B 788 10:19:17 7:06:25
3159 7282 LUTON James B 789 10:19:17 7:31:57
3160 9602 COXON Alan C 1125 10:19:17 7:06:41
3161 8260 BARKER Simon C 1126 10:19:20 7:09:55
3162 6983 MATSUURA Toru C 1127 10:19:22 7:22:12
3163 3961 LABBE Joel E 204 10:19:29 7:13:10
3164 3932 ROEDEL René D 636 10:19:29 7:05:45
3165 6318 THERACHE Stephane C 1128 10:19:30 6:58:50
3166 2142 BRANGIER Herve B 790 10:19:32 6:51:15
3167 4812 CUVILLIER Vincent C 1129 10:19:33 7:02:24
3168 2897 MEUNIER Jean-Michel E 205 10:19:34 6:53:54
3169 3572 HALL Scott C 1130 10:19:34 7:02:07
3170 6526 BUCHHOLTZ Damien B 791 10:19:42 7:13:22
3171 3808 DUMAS Yves E 206 10:19:43 7:14:51
3172 4532 BRIET Annemijn F 38 10:19:46 7:11:49
3173 1731 MAUREL Bernard E 207 10:19:46 7:11:44
3174 4534 BRUINIER Niki B 792 10:19:47 6:56:49
3175 6381 STURGESS John C 1131 10:19:48 7:31:06
3176 4545 POEL Marjan F 39 10:19:51 7:11:24
3177 2561 ANDRÉ Jean-Marc D 637 10:19:55 7:15:26
3178 6618 CHUDZIAK Serge Daniel C 1132 10:19:55 7:03:29
3179 4764 VIALLE Julien B 793 10:19:55 7:08:59
3180 5013 WILKIE Iain D 638 10:19:57 7:11:07
3181 1117 QUINNN Diarmuid D 639 10:20:07 7:27:46
3182 7553 ROSAT Thierry D 640 10:20:07 6:51:43
3183 7210 JULIEN Philippe D 641 10:20:07 6:46:57
3184 7154 NAEGELS Eric C 1133 10:20:11 6:58:43
3185 8913 HORTA NETO Francisco D 642 10:20:13 7:20:11
3186 7534 TURNBULL James B 794 10:20:15 7:05:32
3187 4776 MCPHERSON Vaughan C 1134 10:20:21 6:45:21
3188 2797 ALBINET André D 643 10:20:24 7:28:49
3189 6041 MCLEOD Kevin C 1135 10:20:30 7:13:14
3190 9687 HORSCROFT David B 795 10:20:31 7:06:15
3191 6408 DIETRICH Jean Claude C 1136 10:20:31
3192 5962 WEST Neal Douglas B 796 10:20:40 7:12:50
3193 7203 MCKEARNEY Neil B 797 10:20:41 7:10:58
3194 6556 PERRITT Jerry D 644 10:20:45 7:19:08
3195 9455 FORDE Niall B 798 10:20:47 7:13:35
3196 7194 MORLEY Rodger A 319 10:20:59 7:07:56
3197 5944 GASKELL Mark C 1137 10:21:01 7:07:09
3198 3958 WARNER Gavin C 1138 10:21:04 7:21:38
3199 2301 BORRELLY Ghislain C 1139 10:21:07 7:26:09
3200 8397 TORRENTES Alexandre C 1140 10:21:13 6:51:18
3201 7907 SIMONEAU Eric C 1141 10:21:16 7:13:12
3202 7127 MELINU Jerome B 799 10:21:21 7:14:44
3203 3945 WARREN Giddins D 645 10:21:27 7:07:41
3204 1624 MC GRATH James C 1142 10:21:29 7:03:31
3205 6348 MUTELET Patrick D 646 10:21:47 7:19:24
3206 711 BARNET Geneviève G 54 10:21:48 6:59:59
3207 6052 BERTRAND Jean-Pierre D 647 10:21:49 7:19:00
3208 9559 LEPLATOIS Michael C 1143 10:21:50 6:53:03
3209 9575 BORCHERS Peter B 800 10:21:53 7:25:00
3210 7862 MULLANY Justin C 1144 10:21:56 7:14:26
3211 8206 SAINT ANDRÉ Philippe D 648 10:21:58 7:18:59
3212 6291 MCLAUGHLIN Michael B 801 10:21:58 6:59:09
3213 4569 CONWAY Nicholas B 802 10:21:59 6:59:17
3214 9497 HILL Robert E 208 10:22:06 6:47:57
3215 9698 GERBERON Olivier C 1145 10:22:19 6:26:41
3216 4766 ORTON Rex C 1146 10:22:24 6:52:50
3217 8479 BAKER James B 803 10:22:31 7:12:42
3218 3465 BLANC Michel D 649 10:22:32 6:53:18
3219 2786 HOUSDEN-THOMAS Jamie B 804 10:22:32 7:20:31
3220 3553 SEGURA José Louis D 650 10:22:34 7:08:01
3221 9123 WELCH Richard B 805 10:22:36 6:43:49
3222 3357 LEMOULE Christian E 209 10:22:36 7:09:18
3223 2092 MARQUER Mickael B 806 10:22:41 6:42:22
3224 7094 DEMPSEY Michael B 807 10:22:43 6:49:05
3225 6504 OCONNOR Siobhan F 40 10:22:44 6:48:57
3226 6025 EDMONDSON Craig B 808 10:22:46 6:56:17
3227 2895 HARRISON Nicholas B 809 10:22:50 7:01:22
3228 5738 NEVILL Zoe G 55 10:22:52 7:28:29
3229 5162 CARPENTER Jonathan C 1147 10:22:56 7:07:21
3230 2538 TISSOT Cyprien B 810 10:22:58 6:06:42
3231 3173 BENOIT Jean Michel D 651 10:23:03 7:15:24
3232 3883 GOVAERTS Johan D 652 10:23:03 7:14:55
3233 6557 NICOLAS Frederic C 1148 10:23:04 7:19:05
3234 9418 ROSS John A 320 10:23:08 6:04:51
3235 5004 PEARCE Mark C 1149 10:23:08 7:07:01
3236 2240 MEIGNANT Nicolas B 811 10:23:09 7:29:50
3237 8393 GURET Nicolas B 812 10:23:12 7:20:09
3238 9458 DEDEYNE Jean-Marc B 813 10:23:16 7:12:34
3239 8327 CANNET Gilles C 1150 10:23:20 7:20:05
3240 5976 BOUVERET Gregory B 814 10:23:22 7:25:10
3241 1559 BIEBER Thierry C 1151 10:23:23 7:36:03
3242 3325 PERRIN Pierre E 210 10:23:24 7:17:30
3243 4772 MAGRAITH Alexander C 1152 10:23:25 7:19:00
3244 3905 SITTER Julien A 321 10:23:27 7:18:09
3245 7763 GAULD Robert C 1153 10:23:27 6:51:37
3246 7661 GIBSON Robert C 1154 10:23:34 7:30:48
3247 7338 HUGHES Gavin C 1155 10:23:40 6:48:49
3248 78 GOLEC Marcin A 322 10:23:41 6:54:51
3249 2833 RABINEAU Gerard E 211 10:23:46 7:11:16
3250 2834 ROLLAND Jean Claude E 212 10:23:48 7:03:11
3251 9449 WOODHAMS Martin C 1156 10:23:51 7:07:51
3252 5633 CHAMBERS Marcus C 1157 10:23:57 7:01:35
3253 9728 REYNOLDS Miles C 1158 10:24:00 7:05:08
3254 5042 DANIELS Paul C 1159 10:24:02 7:16:11
3255 9530 POCHEZ Pascal C 1160 10:24:04 6:58:48
3256 7034 CARVALHO José Antonio D 653 10:24:06 7:23:04
3257 9070 WHITE James C 1161 10:24:08 7:14:57
3258 9667 DEWBERRY Justine G 56 10:24:12 7:15:33
3259 5445 GAUTIER Stephane C 1162 10:24:15 7:09:01
3260 3908 SODHA Jitesh C 1163 10:24:22 7:26:57
3261 8605 SEARS Rob B 815 10:24:23 7:05:48
3262 6570 KENSINGTON Edward C 1164 10:24:24 6:53:22
3263 1534 MARIN Olivier C 1165 10:24:24 7:39:58
3264 4641 O’HARA Karen F 41 10:24:24 7:05:47
3265 2093 HANNON James C 1166 10:24:30 7:07:44
3266 5473 WHEELER Mark C 1167 10:24:30 7:04:37
3267 8770 KNOTT Richard B 816 10:24:31 7:34:36
3268 3953 CORCORAN Conor C 1168 10:24:32 7:27:58
3269 3796 BERNARD Philippe C 1169 10:24:38 7:14:23
3270 9653 MCCROHAN Jerry C 1170 10:24:40 7:14:59
3271 4201 DENIS Anthony B 817 10:24:44 7:11:47
3272 8963 SMITH Paul B 818 10:24:45 7:06:50
3273 3960 CONDAMIN Yvan C 1171 10:24:52 6:50:18
3274 7023 DENNETT Jonathan C 1172 10:24:59 6:50:18
3275 8357 SCHAEFFER Nicolas A 323 10:24:59 6:47:48
3276 6422 CONTICELLO Francesco C 1173 10:25:01 7:23:06
3277 9574 DESFOUR Didier D 654 10:25:02 6:46:30
3278 1579 LECOCQ Jean D 655 10:25:06 7:19:30
3279 4041 MAHY Nick C 1174 10:25:09 7:04:24
3280 965 OZKOC Serkan B 819 10:25:12 6:53:51
3281 4713 BOWDEN Christopher C 1175 10:25:15 7:06:27
3282 9784 DYER David D 656 10:25:17 7:13:37
3283 3570 WHITE Ian C 1176 10:25:20 7:19:57
3284 1066 SAEVARSSON Gudjon C 1177 10:25:21 7:34:37
3285 3976 JOHNSTON Douglas B 820 10:25:22 7:06:11
3286 4487 HARRISON John C 1178 10:25:23 7:01:38
3287 8552 CADET Albert E 213 10:25:24 7:22:21
3288 9398 COLLINS Robert A 324 10:25:25 6:43:55
3289 1948 DUHAUBOIS Serge D 657 10:25:31 7:26:25
3290 7898 MANN David C 1179 10:25:31 7:21:37
3291 5130 CLEWS Tom B 821 10:25:33 7:02:57
3292 7787 DOWNS Andy D 658 10:25:41 7:12:23
3293 7144 NAUDOT Olivier A 325 10:25:48 7:23:25
3294 7564 MORRELL Thomas A 326 10:25:49 6:56:48
3295 8223 BOUCHE Cédric B 822 10:25:53 7:15:56
3296 5659 MAZZARINO Thierry C 1180 10:25:56 6:37:24
3297 3765 SMITH Neil C 1181 10:25:56 7:08:18
3298 2907 BOZOC Nicolas B 823 10:25:57 7:05:50
3299 2792 ROUSSEL Patrick D 659 10:26:04 7:28:34
3300 7143 ARCOBELLI Arnaud B 824 10:26:05 7:09:54
3301 6558 EAST Rebecca F 42 10:26:11 7:06:51
3302 5985 JACQUIER Eric D 660 10:26:18 6:56:03
3303 7772 CONN Carl D 661 10:26:18 7:08:27
3304 8603 SCHLEMMER Steve C 1182 10:26:24 6:59:41
3305 7604 TRAIN Mark C 1183 10:26:24 7:11:23
3306 8391 CALIXTO Jefferson C 1184 10:26:33 6:47:04
3307 3136 GRANIER Alain C 1185 10:26:34 7:28:17
3308 3351 CHATAIGNIER Christian D 662 10:26:37 7:35:59
3309 9503 MASSERINI Michele B 825 10:26:44 7:16:58
3310 9451 PLOMION Philippe D 663 10:26:51
3311 8529 MAGNIER Frédéric B 826 10:26:55 6:36:12
3312 8854 CARPENTIER Eric D 664 10:26:59 7:03:17
3313 5280 WELLARD Philip James C 1186 10:27:01 7:20:53
3314 7691 XHAARD Jacques E 214 10:27:02 7:14:00
3315 3832 CORCELLE Christophe C 1187 10:27:02 6:42:37
3316 7136 HARRIS Rhys A 327 10:27:04 7:19:14
3317 5290 HOUPERT Philippe D 665 10:27:07 7:50:31
3318 6899 GÉRAUD Simon A 328 10:27:07 6:21:05
3319 8270 MULLINS Sean C 1188 10:27:08 7:20:22
3320 2836 CECCARINI Jean-Claude E 215 10:27:10 7:17:08
3321 6371 VERNON David D 666 10:27:11 7:21:38
3322 5165 COX Simon C 1189 10:27:13 7:12:19
3323 5709 RAPHY Patrick E 216 10:27:14 7:17:04
3324 4436 KUAN. Ying Ching C 1190 10:27:14 7:17:39
3325 8864 TISLER Denis C 1191 10:27:15 7:18:38
3326 5893 ALLARD Hubert E 217 10:27:17 7:08:47
3327 7219 BLAIN Richard B 827 10:27:26 6:41:48
3328 8432 SINGH Inderjit C 1192 10:27:28 7:16:33
3329 7649 TILLIERE Christophe C 1193 10:27:32 7:20:23
3330 4809 VICKERS Tony B 828 10:27:46 7:14:37
3331 8295 SMITH Ralph B 829 10:27:47 7:11:29
3332 2208 GUYONNET Guy E 218 10:27:51 7:04:59
3333 7777 MCCALL William C 1194 10:27:54 7:10:13
3334 7849 COX Andrew C 1195 10:27:56 7:32:43
3335 2773 PEIFFER Tom C 1196 10:27:58 6:13:47
3336 7107 WURTZ Jean-Marie D 667 10:28:06 7:17:54
3337 5400 PIOT Nicolas B 830 10:28:07 7:27:21
3338 1588 JULLIAN Maurice D 668 10:28:11 7:19:03
3339 8356 SCHAEFFER Guillaume A 329 10:28:11 6:49:11
3340 8168 SMITH Deborah G 57 10:28:14 7:04:44
3341 5292 POUJOL Sophie G 58 10:28:14 7:29:11
3342 3477 CLOAREC Jean Noel C 1197 10:28:16 7:48:11
3343 2757 SOBRIE Guillaume B 831 10:28:17 7:09:36
3344 404 MANNING Konrad C 1198 10:28:19 7:29:06
3345 3567 CHANAY Alexandre B 832 10:28:24 7:26:47
3346 4824 GRANGER Claude E 219 10:28:25 7:23:33
3347 4743 BARTHELEMY Francois C 1199 10:28:32 7:17:37
3348 9075 FAWCETT Francis B 833 10:28:38 6:38:10
3349 8347 VERDIER Jean-Philippe C 1200 10:28:38 7:12:32
3350 8969 CONNOLLY Shane B 834 10:28:40 6:56:03
3351 6879 RICHARDSON Gavin C 1201 10:28:42 7:43:08
3352 3978 PEASTER Christophe C 1202 10:28:45 7:27:13
3353 2555 SOMA Alain E 220 10:28:47 7:24:06
3354 5837 WELSH David C 1203 10:28:54 7:16:27
3355 5639 GLEAVE David D 669 10:28:57 6:58:01
3356 8321 SOUZA Nicolas B 835 10:29:00 6:36:46
3357 8561 KOWALYSZYN Steve B 836 10:29:03 7:31:26
3358 2725 PAYNE Toby B 837 10:29:11
3359 3897 DELCAILLOU Jacques D 670 10:29:13 7:30:27
3360 8340 COLEMAN Joseph B 838 10:29:16 7:04:30
3361 1408 COUMES Vincent B 839 10:29:17 7:48:39
3362 7802 OTT David A 330 10:29:32 7:10:20
3363 7960 DRILLINGCOURT David C 1204 10:29:34 6:53:12
3364 2670 CORMIER Michel E 221 10:29:35 7:17:16
3365 9735 FULTON Neil C 1205 10:29:37 7:13:23
3366 1604 CARBONELL Mathieu C 1206 10:29:37 6:52:39
3367 7881 PURVEY Robert D 671 10:29:37 7:16:44
3368 3857 LAUTREC Thierry C 1207 10:29:41 7:18:36
3369 8188 MCNAMARA Sean C 1208 10:29:42 7:33:12
3370 4524 BEAUBOIS Jean-Yves C 1209 10:29:43 7:26:38
3371 5283 FRISER Eric C 1210 10:29:46 7:23:52
3372 3569 BOWDEN Gordon C 1211 10:29:50 6:52:57
3373 4842 DAVID Jean E 222 10:29:52 7:19:41
3374 2209 BULOZ Olivier C 1212 10:29:57 6:55:53
3375 7783 WOODARD Thomas C 1213 10:29:59 7:26:37
3376 2523 DEGROOTE Jean-Luc E 223 10:30:00 7:04:29
3377 2193 FOURET Francois A 331 10:30:00 6:39:54
3378 3182 FARIS Philippe D 672 10:30:01 7:27:02
3379 6633 ADAMS Richard C 1214 10:30:08 7:28:44
3380 9669 DEMEURE Arnaud B 840 10:30:10 7:10:40
3381 3835 VERCUEIL Thibaut A 332 10:30:11 7:09:40
3382 8986 NOUR Noomane A 333 10:30:12 7:07:31
3383 9006 WALSINGHAM Paul C 1215 10:30:14 7:38:38
3384 4554 BIOTEAU Claude D 673 10:30:16 7:14:47
3385 5641 CORCELLE Frederic C 1216 10:30:20 6:59:23
3386 6669 WATERS David B 841 10:30:27 6:57:15
3387 3147 GARNIER Patrick D 674 10:30:27 7:21:15
3388 7202 SOWERBY William C 1217 10:30:32 7:13:58
3389 3896 SMYTH David B 842 10:30:38 7:16:51
3390 5703 RIVALLEAU Philippe C 1218 10:30:41 6:59:06
3391 1421 LEGOUHY Jean-Marie D 675 10:30:44 7:07:14
3392 3829 MASHITER Glenn C 1219 10:30:45 7:32:00
3393 9028 MAURRAS Nicolas B 843 10:30:50 7:44:46
3394 3948 JAMES Amanda G 59 10:30:55 7:09:06
3395 9118 HENRY David C 1220 10:30:56 7:22:35
3396 6563 BRUYAS Jean-Marc D 676 10:30:58 6:55:07
3397 2567 PAUMIER Luc C 1221 10:31:01 7:30:41
3398 3280 GROOTHAERD Christian D 677 10:31:03 7:28:30
3399 4422 CALDWELL Andrew C 1222 10:31:04 7:10:44
3400 3370 WILLIAM Oram D 678 10:31:09 6:54:38
3401 9765 LARIDANT Bruno D 679 10:31:12 7:20:28
3402 4380 SCOTT Dan B 844 10:31:17 7:14:12
3403 9479 VYVERMAN Wouter A 334 10:31:20 7:18:14
3404 6921 PARDO CAYUELA Jose D 680 10:31:23 6:58:20
3405 5168 DELATTRE Philippe D 681 10:31:26 7:28:11
3406 3513 JUNG Cornelius A 335 10:31:29 6:59:20
3407 3602 RENNER Christian B 845 10:31:31 6:51:42
3408 7180 JOOST Van Rens B 846 10:31:39 7:01:30
3409 7200 BAS Van Rens C 1223 10:31:40 7:20:30
3410 5072 COUSIN Thierry C 1224 10:31:43 7:14:40
3411 2861 ABGRALL Armand E 224 10:31:44 7:41:26
3412 5358 FAUBEL Corine G 60 10:31:49 7:13:47
3413 2879 CHAMPARNAUD Jean-Claude E 225 10:31:50 7:33:59
3414 5261 EDMONDS Polly G 61 10:31:53 7:26:30
3415 9496 FOLKESSON Torbjorn B 847 10:31:55 7:01:52
3416 3490 DE SOYE Antonin B 848 10:31:57 6:30:12
3417 2600 BITCHE Raymond D 682 10:31:58 7:25:18
3418 4124 COLLIER John A 336 10:32:01 7:15:23
3419 6640 BOYD Stephen C 1225 10:32:02 7:04:28
3420 4540 LONG Jesse Gordon B 849 10:32:03 7:17:44
3421 8287 LABORNE Philippe D 683 10:32:03 7:22:13
3422 3234 JAMES Paul C 1226 10:32:05 7:20:20
3423 5235 CHAMBERS Paul B 850 10:32:09 7:32:26
3424 8819 DUBOUIS Alain C 1227 10:32:10 7:19:05
3425 6263 MULHOLLAND Tristan B 851 10:32:10 6:59:02
3426 3413 GREGORY Jason C 1228 10:32:17 7:13:28
3427 6651 DOREL Herve C 1229 10:32:18 7:26:33
3428 2520 JOUBERT Bruno C 1230 10:32:18 7:09:29
3429 3156 ARMIGNIES Philippe D 684 10:32:27 7:39:58
3430 5677 JOWLE Richard C 1231 10:32:29 7:14:43
3431 7211 LABRUNYE Thomas C 1232 10:32:31 7:19:41
3432 6069 COURVILLE Christophe C 1233 10:32:39 7:24:43
3433 5125 MCATEER Gerrard B 852 10:32:39 7:08:27
3434 6891 LE TOUZE Yannick B 853 10:32:41 6:37:12
3435 8975 ANDREWS Thomas A 337 10:32:43 7:00:04
3436 8974 CHEUNG Albert A 338 10:32:44 6:59:31
3437 4092 DELADRIERE Marc Antoine A 339 10:32:52 7:23:07
3438 5475 PEARCE Thomas D 685 10:33:20 7:32:08
3439 5766 CUNNINGHAM Michael C 1234 10:33:20 7:19:49
3440 3860 BENGALA Jean-Marc C 1235 10:33:25 7:22:41
3441 5341 LEE-AMIES Mark C 1236 10:33:28 7:09:04
3442 4520 TEUGHELS Olivier C 1237 10:33:28 6:55:53
3443 4209 HERISSON David B 854 10:33:35 7:27:41
3444 5040 NELL Johannes C 1238 10:33:36 7:20:58
3445 9162 PELUSO Bertrand C 1239 10:33:50
3446 9420 VIDAL Julien B 855 10:33:51 7:32:52
3447 6992 DE FREITAS SALES Vinicius B 856 10:33:52 7:32:17
3448 81 BROWN Chad B 857 10:33:52
3449 9170 GOUTEUX Jean Francois B 858 10:33:55 7:17:21
3450 2090 ROUZEAU Alain D 686 10:33:55 7:37:58
3451 2272 VAN DER ERVE Bart B 859 10:33:57 7:40:03
3452 4044 CRAWFORD John C 1240 10:33:59 7:41:10
3453 5874 LECLERC Serge D 687 10:34:09 7:08:02
3454 7535 MARQUES Thycianno B 860 10:34:11 7:08:18
3455 7645 WINSTON David C 1241 10:34:13 7:04:34
3456 3957 CHATEL Christophe C 1242 10:34:14 7:41:39
3457 7237 SANTOS BRITO Wallace C 1243 10:34:14 7:23:13
3458 4648 DEPIERRE Didier D 688 10:34:16 7:13:22
3459 2505 JOBIN Martin C 1244 10:34:18 7:10:24
3460 6515 ANEN Marco D 689 10:34:26 7:14:52
3461 3394 VARIS Maurice E 226 10:34:27 7:30:36
3462 912 HOLVOET Guy D 690 10:34:31 6:59:17
3463 5251 CORBETT Charles B 861 10:34:38 7:17:36
3464 3924 AMICE Alain E 227 10:34:38 7:34:48
3465 6664 FRANCISCO Philippe C 1245 10:34:43 7:49:49
3466 2503 PALEFROY Philippe C 1246 10:34:46 7:08:04
3467 3240 HANSON Daniel C 1247 10:34:49 7:14:32
3468 6079 PLATT Simon C 1248 10:34:49 7:01:35
3469 3160 SCHILTZ Yannick E 228 10:34:51 7:20:42
3470 927 POTDEVIN David C 1249 10:34:52 7:41:21
3471 9404 BARREIRA Auguste C 1250 10:34:55 6:32:37
3472 2731 PELLEGRIN Jean Luc D 691 10:34:58 7:48:45
3473 8483 BERT Jean-Valéry C 1251 10:35:00 7:22:28
3474 6956 RISOLI Carlo C 1252 10:35:04 7:17:04
3475 2584 EDELSTEN Matt B 862 10:35:08 7:24:54
3476 6988 SEELIG Leo B 863 10:35:09 6:41:54
3477 8988 THOMAS Franck C 1253 10:35:17 7:32:40
3478 8964 FIELDING Ian B 864 10:35:17 7:16:03
3479 4708 MAZEN Brice B 865 10:35:21 6:43:57
3480 6985 KNOWLES Roderick D 692 10:35:22 7:15:05
3481 4160 GAME Duncan C 1254 10:35:22 7:17:43
3482 9616 LIMA BASTO JUNQUEIRA Andre C 1255 10:35:22 7:30:28
3483 3949 PELLERIN Serge C 1256 10:35:26 7:03:26
3484 8363 RIDGE Brendan D 693 10:35:28 7:06:23
3485 4459 ROBERT Farago C 1257 10:35:29 7:13:17
3486 7637 MARK Sutton D 694 10:35:30 7:13:37
3487 3315 PERROT Didier E 229 10:35:36 7:25:48
3488 2057 SOULARD Jean-Marie D 695 10:35:38 7:33:04
3489 9078 THOR - THORIN HOWIE Azon-Azoth C 1258 10:35:46 7:18:48
3490 8165 WORDEN Alastair A 340 10:35:47 7:33:09
3491 9758 LONGIN Régis B 866 10:35:47 7:03:38
3492 9202 BERNARD Marc-Atoine C 1259 10:35:54 7:12:15
3493 9799 HAMPSHIRE John D 696 10:35:56 7:04:44
3494 9724 CUMMINS Ryan A 341 10:35:59 7:05:28
3495 5388 CRAWFORD Mark C 1260 10:36:01 7:27:23
3496 4751 MARFAING Bruno D 697 10:36:01 7:22:04
3497 3237 WAKEFIELD Gavin C 1261 10:36:02 7:21:17
3498 9639 LE DENG Ting B 867 10:36:09 7:37:03
3499 4763 HUNTER Barry B 868 10:36:11 7:27:21
3500 5136 BARRY Tim B 869 10:36:14 6:49:03
3501 6972 CHALKLEY Tracey G 62 10:36:17 7:26:14
3502 5362 ARNAUD Paul-Claude C 1262 10:36:25 7:46:19
3503 3379 MARGERIE Olivier C 1263 10:36:34 7:13:39
3504 5010 LUGAR Abel B 870 10:36:37 7:31:15
3505 7764 VANHOUTTE Brice B 871 10:36:38 7:16:05
3506 6343 LARSSON Fredd B 872 10:36:38 7:33:00
3507 4748 BARMENTLO Bart C 1264 10:36:43 7:01:40
3508 5665 PATRICK Krista C 1265 10:36:55 7:39:24
3509 2729 FRANCK Pascal D 698 10:36:58 7:28:27
3510 6280 DAVIS Bruce C 1266 10:36:59 7:29:39
3511 8457 FAIRLEY Homer D 699 10:36:59 7:17:36
3512 6028 WIEDERHOLD Wayne D 700 10:37:01 6:44:13
3513 8890 EDGAR Mitchell C 1267 10:37:04 7:21:21
3514 6973 PORTER Russell A 342 10:37:06 7:37:07
3515 2908 MOUEZY Francois A 343 10:37:16 7:33:23
3516 940 MUNHALL John Anthony C 1268 10:37:31 7:14:47
3517 3218 TAYLOR Scott C 1269 10:37:39 7:21:05
3518 3494 THURLOW Steven C 1270 10:37:39 6:13:18
3519 1717 DIOT Jean Pierre D 701 10:37:47 7:33:47
3520 5656 LEQUEUX Christophe C 1271 10:37:56 7:25:14
3521 7520 BERTHUIN Christian D 702 10:37:58 7:12:01
3522 8935 ALVARO Patrick B 873 10:38:05 7:40:19
3523 7169 TISSOT Nicolas A 344 10:38:08 7:07:34
3524 6676 MONTEIRO DE CARVALHO Mariana G 63 10:38:09 6:38:38
3525 5956 ALLEN Carl B 874 10:38:10 7:13:46
3526 2766 VILLETTE Hervé D 703 10:38:10 8:01:33
3527 2160 BOUCHER Eric D 704 10:38:14 7:52:34
3528 2043 MULLALLY Shane B 875 10:38:15 7:22:51
3529 1670 ANDOUARD Yannick C 1272 10:38:17 7:51:45
3530 5084 DAVID Butler D 705 10:38:18 7:30:15
3531 5228 ZERCHER Sylvain C 1273 10:38:19 7:37:28
3532 7799 KAUKONEN Jukka C 1274 10:38:25 7:23:19
3533 8264 LANCELOT Daniel C 1275 10:38:32 7:26:19
3534 7801 GADIOLET Christophe C 1276 10:38:34 7:07:15
3535 3804 GREMAN Oliver C 1277 10:38:38 7:09:38
3536 7732 SUMMERSON Nick B 876 10:38:47 6:42:21
3537 3404 GROBÉTY Bernard D 706 10:38:57 7:44:47
3538 9435 TRIMAILLE Olivier B 877 10:39:11 7:44:11
3539 7904 KNIGHT Paul D 707 10:39:11 7:03:54
3540 2553 O BRANNAGAIN Doiminic C 1278 10:39:14 7:34:16
3541 2127 BONNET LUCIEN Lucien E 230 10:39:15 8:03:25
3542 3303 ROBINEAU Morgan B 878 10:39:17 7:17:52
3543 9840 GHEYSEN Stephane D 708 10:39:26 7:21:39
3544 5041 BAKER Gareth B 879 10:39:27 6:55:45
3545 8491 MARTIN Jean Claude D 709 10:39:34 7:28:58
3546 6908 LEMAIRE Jacques D 710 10:39:42 7:07:31
3547 3183 FOUGA Gilles E 231 10:39:45 7:18:04
3548 6533 BACHELET Martin A 345 10:39:45
3549 5321 DA SILVA Jose Rozinei C 1279 10:39:45 7:15:43
3550 6922 WOODMAN-SMITH Ben B 880 10:39:51 6:59:13
3551 7970 MATTHEWS Ray D 711 10:39:54 7:11:06
3552 9615 COHENDET Gilles D 712 10:39:56 7:17:15
3553 4637 HAMILTON Ian C 1280 10:39:58 6:53:33
3554 4586 HONERT Holger C 1281 10:40:02 7:20:32
3555 6416 SICLARI Pierre C 1282 10:40:04 7:29:29
3556 1946 DOUCERAIN Antoine C 1283 10:40:08 7:22:40
3557 6026 ROBINSON Andrew A 346 10:40:15 7:23:11
3558 4542 VAN DEN BOLT Esther G 64 10:40:20 7:51:20
3559 6688 LANE Chris C 1284 10:40:22 6:55:08
3560 708 KOIDE Masaaki C 1285 10:40:23 7:52:15
3561 2939 KNIGHT David C 1286 10:40:30 7:21:55
3562 7539 SMITH Martin B 881 10:40:41 7:09:21
3563 8136 ETIENNE Ludovic B 882 10:40:44 7:15:26
3564 6691 SMITH Julian C 1287 10:40:52 7:48:41
3565 1596 VANDERSTRAETEN Patrick C 1288 10:40:54 7:10:56
3566 4038 MURNS Andrew C 1289 10:40:57 7:40:25
3567 2710 LOMBA Claude E 232 10:41:00 7:51:20
3568 7947 MACLEOD David C 1290 10:41:06 7:35:14
3569 1372 BADIOU Christian C 1291 10:41:14 7:54:26
3570 7608 PRATI Salvatore D 713 10:41:15 7:21:48
3571 5050 BOUCHER Charles B 883 10:41:23 7:07:22
3572 5045 BOUCHER Christie G 65 10:41:24 7:11:39
3573 8609 VILAIN Lionel D 714 10:41:33 7:21:13
3574 3496 SAVARY Jean Christophe B 884 10:41:34 7:26:01
3575 7945 DOWSON Henry C 1292 10:41:34 7:20:03
3576 2277 CLARK Simon C 1293 10:41:36 7:39:19
3577 8326 MILNE Neil C 1294 10:41:37 7:31:46
3578 3192 PREECE Michael B E 233 10:41:40 7:37:56
3579 7101 QUINLAN Gavan C 1295 10:41:41 7:14:12
3580 8283 SERIES Peggy G 66 10:41:43 7:39:42
3581 8751 O SULLIVAN Daragh C 1296 10:41:45 7:39:37
3582 4714 FLAMENT Pascal C 1297 10:41:46 7:09:55
3583 5813 HALL Christopher C 1298 10:41:47 7:12:27
3584 5815 WADE Philip C 1299 10:41:47 7:14:42
3585 7794 WEARNE Glenn C 1300 10:41:53 7:37:58
3586 3316 BRESELE Manfred D 715 10:42:00 7:23:02
3587 1981 BATY Philippe E 234 10:42:10 7:49:19
3588 3416 FARIA Luis Giovanni C 1301 10:42:12 7:44:23
3589 4022 GAUT Florence G 67 10:42:20 7:12:36
3590 9785 HATLEY Anthony E 235 10:42:21 7:17:47
3591 2636 ROBERT Eric D 716 10:42:22 7:52:20
3592 2528 CAMBOUR Pascal D 717 10:42:25 7:28:42
3593 3833 CHARBONNEAU Christian E 236 10:42:26 7:24:59
3594 5138 DOYLE Jon C 1302 10:42:26 7:39:21
3595 5066 FENOUILLET Christian D 718 10:42:27 7:30:26
3596 4561 ROUPIE Christophe C 1303 10:42:33 7:27:56
3597 1605 VIOLLÉ Pascal D 719 10:42:33 7:52:18
3598 7231 ANTHONY Matthew B 885 10:42:34 7:29:31
3599 5175 ROURE Philippe C 1304 10:42:39 7:28:53
3600 7069 LAGACHE Jacques C 1305 10:42:44 7:10:30
3601 6271 LISTER Daniel B 886 10:42:47 7:43:12
3602 8990 LAURENT Marcel E 237 10:42:47 7:07:40
3603 3476 SMITH Matt B 887 10:42:48 7:42:29
3604 1651 DENIS Jean-Pierre E 238 10:42:49 7:26:11
3605 5179 DARLEY John C 1306 10:42:55 7:08:36
3606 2085 MERCIER Robert E 239 10:43:03 7:31:40
3607 9812 HADDEN Nigel B 888 10:43:15 6:51:11
3608 3396 RABOT Patrick D 720 10:43:25 7:48:38
3609 6672 VAN BEUNINGEN Richard B 889 10:43:25 7:09:45
3610 9703 GOODRIDGE Dave D 721 10:43:32 7:39:45
3611 9560 O’DWYER Garreth B 890 10:43:39 7:03:01
3612 7835 JEFFERIES Tom B 891 10:43:48 6:50:23
3613 8126 JEFFERIES William B 892 10:43:49 6:48:59
3614 7011 DESMEDT Hans C 1307 10:43:52 7:32:02
3615 8916 SUMMERSCALES Simon C 1308 10:44:05 7:37:34
3616 6279 ANDERSON Martin B 893 10:44:18 7:38:06
3617 3531 HERMELINE Pierre E 240 10:44:20 7:41:46
3618 6277 POWELL Mark D 722 10:44:22 7:36:34
3619 6056 BAUMERT Thierry C 1309 10:44:25 7:16:44
3620 4390 RICHET Sylvain D 723 10:44:37 7:37:10
3621 2215 REIS Joaquim D 724 10:44:40 7:35:01
3622 6334 BOSCH François D 725 10:44:43 7:13:05
3623 8441 MILTON Robert B 894 10:44:49
3624 5777 CASTRO Rafael B 895 10:44:52 6:19:06
3625 2571 TARDIEU Jacques D 726 10:44:53 7:23:26
3626 1480 RONKSLEY James B 896 10:45:08 7:32:19
3627 1921 VEAU Patrick D 727 10:45:15 7:21:42
3628 6289 CHITTY Ian C 1310 10:45:22 6:57:25
3629 4770 FAVIER Pascal C 1311 10:45:26 7:07:45
3630 2192 BAUDUIN Laurent B 897 10:45:29
3631 6549 MOFFAT Fiona G 68 10:45:38 7:37:45
3632 9454 MALAVIELLE Vivien B 898 10:45:40 7:21:49
3633 8360 FRETWELL Philip B 899 10:45:42 7:27:41
3634 9434 SEGUIN Gilles D 728 10:45:42 6:36:21
3635 967 EVANS Marty C 1312 10:45:43 7:29:22
3636 7345 DHELENS Pierre D 729 10:45:43 7:46:09
3637 4070 MESTRES Romain C 1313 10:45:43 7:39:56
3638 3551 AIDAN Smyth D 730 10:45:44 7:17:13
3639 9795 GANNE Serge D 731 10:45:45 7:03:14
3640 4042 MILNE Isabelle G 69 10:45:46 7:39:26
3641 2650 DE VAZELHES Just D 732 10:45:50 7:55:17
3642 7026 BEVAN Jason B 900 10:45:57 7:35:08
3643 433 TAGAND Patrick C 1314 10:46:03
3644 4753 BROWNE Michael D 733 10:46:10 7:42:30
3645 5398 MALDERA Jean-Francois B 901 10:46:11 7:14:32
3646 5663 HEELS David C 1315 10:46:12 7:47:53
3647 6665 BOSQUET Romain A 347 10:46:18 6:47:32
3648 5989 CLAUDEL Benjamin A 348 10:46:18 7:25:34
3649 4037 CARPENTIER Nicolas A 349 10:46:21 7:24:28
3650 4183 WEBB James B 902 10:46:23 7:00:30
3651 6336 WHITCOMBE Richard C 1316 10:46:30 7:34:18
3652 5819 MCEWAN Angus D 734 10:46:31 7:29:44
3653 3855 VANDERSNICKT Erwin D 735 10:46:40 7:30:12
3654 3913 CRAYFORD Paul B 903 10:46:43 7:22:48
3655 9030 JARVIS Nicola G 70 10:46:52 7:54:50
3656 5188 PORTA Enrico C 1317 10:46:54 7:43:27
3657 5646 ABEL Dominique D 736 10:46:55 7:40:41
3658 1535 MCGILVERAY Alan D 737 10:47:07 7:38:18
3659 6306 WALKER Nick C 1318 10:47:08 7:22:35
3660 6308 BAKER Tim D 738 10:47:08 7:14:31
3661 804 DURAND Dominique D 739 10:47:10 7:52:15
3662 3827 MAILLEBUAU Eric D 740 10:47:10 7:37:55
3663 5932 BROOKE Ben B 904 10:47:19 7:54:58
3664 6349 WARD Leslie D 741 10:47:19 7:41:52
3665 5994 ZULAUFF Xavier B 905 10:47:23 6:19:34
3666 9126 FERNSIDE Matthew B 906 10:47:26 7:29:53
3667 9145 PURVIS Martin C 1319 10:47:33 7:32:04
3668 9531 AMELLA Frédéric B 907 10:47:40 7:12:16
3669 6394 SIMMONDS Paul E 241 10:47:41 7:18:06
3670 1487 JAN Fabrice C 1320 10:47:42 7:53:30
3671 7212 WATSON Bill E 242 10:47:44 7:40:44
3672 1577 MACPHERSON Roddy C 1321 10:47:47 7:56:21
3673 5800 DREADON Kent B 908 10:47:53 6:59:45
3674 1615 CAMPOS Tatiana F 43 10:48:05 7:08:15
3675 9080 DOWNES Catherine F 44 10:48:13 7:11:13
3676 5311 KELLY John B 909 10:48:13 6:40:55
3677 3783 BURNS Ben A 350 10:48:16 7:31:31
3678 4188 MCKEON James D 742 10:48:25 7:52:51
3679 8922 LEFTLEY Michael C 1322 10:48:25 7:28:29
3680 209 WALSH Ken C 1323 10:48:40 7:28:29
3681 247 MCCLEW Steve C 1324 10:48:40 7:17:29
3682 6257 RUSSELL Andrew B 910 10:48:45 7:06:01
3683 4020 CONVEY Emma G 71 10:48:47 7:30:05
3684 5317 BRISTOW Chris D 743 10:48:57 6:55:20
3685 7578 HITCHCOCK Freddie A 351 10:49:01 7:39:08
3686 7729 LAPRISE Alex C 1325 10:49:05 6:34:48
3687 4100 DELEAZ Regis C 1326 10:49:09 7:47:46
3688 7701 DUBÉ Jean-François B 911 10:49:09 6:32:54
3689 3386 JUNIOR Alberto P C 1327 10:49:10 7:19:17
3690 3991 PHILLIPS Andrew C 1328 10:49:16 7:39:25
3691 3917 SHERWOOD Rawdon D 744 10:49:18 7:36:11
3692 7814 MARTIN Jean-Marie B 912 10:49:22 7:26:18
3693 5255 MAYES Philip D 745 10:49:28 7:25:45
3694 5968 LAVAL Christophe C 1329 10:49:38 7:56:07
3695 8956 WADSWORTH Patrick D 746 10:49:39 7:19:14
3696 7654 BROUILLE Dominique D 747 10:49:55 7:46:03
3697 3148 NONI Hervé C 1330 10:49:59 7:35:47
3698 2980 REFFET Laurence C 1331 10:49:59 7:47:23
3699 6016 GODWIN Martin D 748 10:49:59 7:33:36
3700 8817 MORGAN Joanne G 72 10:50:05 7:19:38
3701 86 TIMMERMAN Mark C 1332 10:50:11 7:22:37
3702 405 WHITNEY Carrick C 1333 10:50:13 7:10:56
3703 8267 BREBAN David D 749 10:50:13 6:50:14
3704 5046 OSBORNE Cameron C 1334 10:50:16 7:19:32
3705 3568 BIRD Gary C 1335 10:50:17 7:45:28
3706 3475 STEEL Peter C 1336 10:50:18 7:47:27
3707 7516 GAMBLE Hayley F 45 10:50:26 7:42:24
3708 5988 MOSSAN Julien B 913 10:50:27 7:19:40
3709 3779 OLIVEIRA Luis Antonio D 750 10:50:38 7:21:59
3710 7884 POWER Stephen C 1337 10:50:49 7:35:14
3711 6689 LOXLEY Richard A 352 10:50:57
3712 7014 DUMENIL Jean-Yves C 1338 10:51:05 7:55:16
3713 3427 COUSTERES Jean D 751 10:51:11 7:57:36
3714 2696 DAVID Jean-Louis E 243 10:51:15 7:40:30
3715 9447 HARMES David E 244 10:51:17 7:48:05
3716 6485 ACÉVÉDO José D 752 10:51:17 7:45:01
3717 8889 CHANNELLIERE Luc C 1339 10:51:18 7:02:43
3718 9161 ARNOUX Philippe D 753 10:51:19 7:50:37
3719 3879 LLOVERAS Jacques E 245 10:51:22 7:44:03
3720 4023 PARADO Henri D 754 10:51:26 7:45:43
3721 3837 LANE Lewis C 1340 10:51:39 7:00:57
3722 6303 VERGEREAU Bruno C 1341 10:51:59 7:11:20
3723 7585 MANCINI Eric D 755 10:52:05 7:14:25
3724 7284 EGLOFF Jean-Philippe C 1342 10:52:06 7:03:31
3725 7181 OELSCHLAEGER Klaus D 756 10:52:08 7:18:45
3726 4478 GIRDLER Nick C 1343 10:52:22 8:01:49
3727 8856 GUERN Nicolas B 914 10:52:23 7:18:09
3728 7676 KNELLER James C 1344 10:52:29 7:47:14
3729 3566 CHAUVE Gilles C 1345 10:52:34 7:46:45
3730 4135 PATTEMORE Richard B 915 10:52:41 7:31:23
3731 9040 SCHILLER Roland D 757 10:52:42 7:53:48
3732 4445 HEULIN Jean Louis E 246 10:52:50 7:40:16
3733 9579 FITZPATRICK Steven C 1346 10:52:55 7:33:57
3734 9620 BEED Christopher C 1347 10:52:55 7:32:09
3735 3583 PICKERSGILL Matthew B 916 10:53:03 7:31:24
3736 9625 MZOUDI Hakim C 1348 10:53:05 7:21:08
3737 8887 FORGE Christophe C 1349 10:53:07 7:04:11
3738 2352 MIYAKE Fábio B 917 10:53:18 7:45:42
3739 8139 DIXON Matthew C 1350 10:53:25 7:11:59
3740 3848 GORNY Henri E 247 10:53:27 7:46:41
3741 4383 LESLIE Will B 918 10:53:30 7:00:34
3742 5301 GAULIER Yves C 1351 10:53:34 7:34:08
3743 4385 BAILEY Neil D 758 10:53:49 7:48:20
3744 2863 ETHEVE Lucien E 248 10:53:54 7:23:04
3745 7864 DAVISON Janet C 1352 10:53:58 7:17:10
3746 2254 GOMES Pascal D 759 10:54:00 7:52:27
3747 6498 GERNET JACQUES Jacques E 249 10:54:07
3748 3986 BOBICHON Jean-Paul D 760 10:54:11 7:53:32
3749 3984 BOBICHON Marie-Hélène G 73 10:54:11 7:54:07
3750 3871 FRENCH David C 1353 10:54:12 7:53:19
3751 4123 WHITFIELD Peter A 353 10:54:13 7:25:59
3752 8978 DUTHOIT Solenne F 46 10:54:26 7:06:23
3753 9076 MOLLOY Chris C 1354 10:54:30 7:07:30
3754 1277 ALLARD Anthony B 919 10:54:30 7:09:00
3755 4496 SILVERWOOD Rhys B 920 10:54:32 7:15:04
3756 9072 POINTON Andrew A 354 10:54:32 7:24:00
3757 5025 HAESAERT Ronny D 761 10:54:34 7:55:54
3758 97 GATENBY Robin D 762 10:54:35 7:46:32
3759 6896 ROSSERO Julien B 921 10:54:39 7:04:16
3760 4454 BOGNER Jean-Damien A 355 10:54:42 7:48:45
3761 3906 VAUDON Franck C 1355 10:54:50 8:11:11
3762 8506 FARIN Tim B 922 10:54:56 7:26:21
3763 7173 MURPHY Elvyn B 923 10:54:57 7:21:41
3764 2276 VAN HILLE Bart C 1356 10:54:59 7:48:52
3765 3309 LAURENT Jean-Jacques D 763 10:55:15 7:29:45
3766 7876 WINTERSON Michael C 1357 10:55:24 7:05:05
3767 8179 DUFOUR Pascal D 764 10:55:26 7:35:08
3768 3459 BRIARS Martin D 765 10:55:29 7:10:06
3769 6635 NADLER Bertrand C 1358 10:55:29 7:49:52
3770 8414 DELEU Francis E 250 10:55:32 6:50:07
3771 9532 GRIFFON Pierre B 924 10:55:33 8:06:56
3772 9588 RODOLPHE Olivier C 1359 10:55:34 7:24:15
3773 4025 VARDANEGA Jean-Pierre D 766 10:55:49 7:09:22
3774 9502 WALSH Maurice D 767 10:55:51 7:19:49
3775 201 BOUCHER Antoine A 356 10:55:56 7:36:34
3776 7556 CRAMP Andy D 768 10:55:57 7:22:20
3777 9068 LOVETT Paul C 1360 10:55:58 7:38:05
3778 7966 BALDWIN Peter C 1361 10:55:58 7:22:39
3779 7724 POWRIE James G 74 10:56:19 7:23:39
3780 8559 CRIST Philippe C 1362 10:56:20 7:56:44
3781 5131 BLACKWOOD Glenn C 1363 10:56:28 7:47:37
3782 7314 HUGHES Gary C 1364 10:56:28 7:35:36
3783 9462 BELIARD Jean Paul D 769 10:56:36 7:49:26
3784 79 JOSELYN Mark D 770 10:56:37 7:31:33
3785 4729 MACE Patrice E 251 10:56:38 7:54:47
3786 8161 VERHOLLE Sebastien B 925 10:56:41 7:31:20
3787 6437 MCGREGOR Paul C 1365 10:56:41 7:10:55
3788 6499 WATSON James C 1366 10:56:45 7:04:44
3789 5869 FACCA Frederic B 926 10:56:49 8:01:38
3790 7552 GIRARD Franck D 771 10:57:07 7:40:02
3791 3501 MANGIN David B 927 10:57:08 7:54:46
3792 8612 BOUVIER Pierre-Armand B 928 10:57:10 6:42:38
3793 2260 METRAL Bertrand C 1367 10:57:15 7:47:24
3794 8471 WIGLEY David B 929 10:57:17 7:42:14
3795 3255 VAN WELDEN Olivier C 1368 10:57:21 7:49:46
3796 4429 CROWLEY Niall B 930 10:57:22 7:17:11
3797 2984 ROBUSTELLI Patrice B 931 10:57:29 7:08:05
3798 2271 SOTHIKUL Siriporn G 75 10:57:33 7:09:28
3799 7549 THIERY Didier D 772 10:57:47 7:39:02
3800 4826 DESMAELE Sylvain D 773 10:57:50 7:37:06
3801 8943 BOISSIER Dominique E 252 10:58:01 7:53:03
3802 5714 RAINBIRD James C 1369 10:58:05 7:27:36
3803 3788 KARAVIAS Yiannos C 1370 10:58:09 7:34:51
3804 3313 OZENNE Roland E 253 10:58:15 8:05:03
3805 8767 SAWYER Richard B 932 10:58:16 8:01:43
3806 9702 RIBAULT Michel E 254 10:58:20 7:49:03
3807 9009 WOODS Kerry B 933 10:58:22 7:38:04
3808 6027 KULAR Ranjit C 1371 10:58:23 7:38:05
3809 1012 POPUT Pierre B 934 10:58:24 7:23:22
3810 6266 FREEMAN Philip D 774 10:58:25 7:48:48
3811 8251 LE NEZET Marc D 775 10:58:34 7:55:52
3812 6322 LAVARA VILLALBA Alejandro B 935 10:58:35 7:31:50
3813 6615 BEARD Robert B 936 10:58:46 6:39:12
3814 9633 TROMPETTO Tony C 1372 10:58:52 7:27:56
3815 5323 LAWTON Greg C 1373 10:58:54 7:35:25
3816 6065 ZUNINO Jean Jacques C 1374 10:58:54 7:35:22
3817 4786 BURRELL Charles B 937 10:58:55 7:25:41
3818 3149 MCAHREN Scott C 1375 10:59:15 8:26:47
3819 7803 LAVALLEE Alban B 938 10:59:18 7:14:35
3820 3216 QUOY Christian D 776 10:59:24 8:16:23
3821 1483 KEITH Sean C 1376 10:59:41 7:53:17
3822 1280 TODD Paul D 777 10:59:47 7:39:19
3823 6671 CURTIS Steven C 1377 10:59:48 7:33:28
3824 6607 MCDONOGH David B 939 10:59:49
3825 6923 WERNECK DE CASTRO Mariana G 76 10:59:53 7:00:04
3826 9038 BORRIES Christoph C 1378 11:00:01
3827 8493 BEDDOWES Mark B 940 11:00:06 7:22:39
3828 6057 NIEDERKORN Jean Noel C 1379 11:00:08 7:35:38
3829 6661 AUTIN Alexandre B 941 11:00:08 8:00:04
3830 8526 SOULARD Pierre E 255 11:00:11 7:50:47
3831 2542 MIMOUNI Karim C 1380 11:00:15 8:05:58
3832 4588 PRION Florent B 942 11:00:16 7:29:34
3833 8835 MCPOLAND James B 943 11:00:17 7:32:31
3834 7296 PEACH Matthew B 944 11:00:26 7:48:41
3835 7887 JONES Nicholas D 778 11:00:28 7:06:25
3836 2814 THOMAS Andrew C 1381 11:00:31 7:50:32
3837 9432 THORNTON John B 945 11:00:32 7:54:21
3838 2526 GERVASONI Eric B 946 11:00:37 7:35:25
3839 2810 FRANCK Guillaume C 1382 11:00:38 7:32:24
3840 4176 MADINIER Pascal D 779 11:00:46 7:34:17
3841 9749 CHARVET Lulu D 780 11:00:47 7:20:49
3842 8761 GENEVE Didier C 1383 11:00:53 8:05:15
3843 4015 DUCHEMIN Marcel E 256 11:00:54 8:08:54
3844 2573 PETER Kearns C 1384 11:00:56 7:37:13
3845 4032 MALARD Regis C 1385 11:00:59 8:07:57
3846 2918 CHAPAT Bernard E 257 11:01:01 7:38:42
3847 981 VIGIER Jacques C 1386 11:01:07 8:12:14
3848 2348 RICHARD Elise F 47 11:01:09 7:43:16
3849 4528 BERTHO Pascal C 1387 11:01:17 7:30:49
3850 9782 ABBAS Hicham A 357 11:01:19 7:34:02
3851 7544 BARTH Joel B 947 11:01:20 7:42:48
3852 6695 HOOPER Dave C 1388 11:01:25
3853 6285 JOHNSTON Adrian C 1389 11:01:26 8:03:11
3854 7953 DESBROSSES Yves D 781 11:01:26 7:43:44
3855 5297 SCHONENBERGER Mauricio B 948 11:01:28 7:07:59
3856 4401 ROLLAND Yannick C 1390 11:01:39 7:32:14
3857 2851 NOYER Gilles B 949 11:01:39 8:01:32
3858 9382 BOHNKE Gunter E 258 11:01:45 8:23:42
3859 6931 PARKER Thomas A 358 11:01:53 7:22:50
3860 9089 BOGNER Sebastien B 950 11:01:55 8:03:56
3861 3376 VILLA Pascal D 782 11:02:03 7:03:40
3862 3537 BOULANGER Gerard E 259 11:02:07 7:59:34
3863 4555 HILL Fraser B 951 11:02:17 8:07:29
3864 7226 TISSOT Frédéric D 783 11:02:41 7:44:46
3865 9666 BAKER Matthew D 784 11:02:42 7:54:57
3866 6639 TARBOURIECH Nicolas B 952 11:02:56 7:55:07
3867 5723 MARCATTOJUNIOR Durval D 785 11:02:57 7:54:38
3868 5328 DONALDSON Jimmy D 786 11:02:59 8:02:29
3869 4728 HINSTRIDGE Vicky G 77 11:03:21 7:58:48
3870 8600 PATRICK Gendre C 1391 11:03:31 7:30:37
3871 6628 MOORE Peter C 1392 11:03:53 7:10:08
3872 5224 DUPRAZ Brigitte G 78 11:04:06 7:45:31
3873 3398 NEDJAM Daniel E 260 11:04:11 8:05:00
3874 6584 WINTER John A 359 11:04:12 7:33:25
3875 4182 DESBOIS Bruno C 1393 11:04:13 7:52:12
3876 1739 BONNAFOUX Rémy E 261 11:04:14 8:16:47
3877 3938 CAPSTICK David D 787 11:04:16 7:56:33
3878 5468 HOLVOET Karel A 360 11:04:21 7:39:19
3879 9766 VAN DE WOESTYNE Luc D 788 11:04:22 7:56:17
3880 5174 MARYNS Frank D 789 11:04:24 7:31:36
3881 3942 IPERTY Michel D 790 11:04:26 7:34:15
3882 6687 MCFAZDEAN Ian D 791 11:04:42 7:54:34
3883 3838 TIERNAN Christopher A 361 11:04:47 7:52:09
3884 6566 OOMS Steven B 953 11:04:50 7:52:51
3885 3994 TIERNAN Barry D 792 11:04:56 7:50:06
3886 9523 MAC CLUSKIE Ian C 1394 11:04:58 7:49:30
3887 2684 KOLBRINK Martin C 1395 11:04:59 7:39:43
3888 6997 BILLUPS Corey C 1396 11:05:07 7:44:53
3889 7854 HURST Graham D 793 11:05:08 7:29:03
3890 6520 FROST Malcolm D 794 11:05:11 7:24:56
3891 2244 CHATUCHINDA Suvit D 795 11:05:16 7:36:07
3892 9378 MORRIS Emma F 48 11:05:16 7:20:15
3893 3965 DETEIX Michel E 262 11:05:22 8:02:26
3894 8915 SEKERIS Grimwald C 1397 11:05:25 7:52:40
3895 7525 MAKOWER William C 1398 11:05:27 7:45:55
3896 9540 SLOAN Jon B 954 11:05:28 7:36:13
3897 3506 DUHAMEL Sébastien B 955 11:05:32 7:22:34
3898 963 VAN DER HULST Peter D 796 11:05:35 7:54:13
3899 4464 DEREK Harrington C 1399 11:05:44 7:43:45
3900 4012 LEVIGNE Frederic D 797 11:06:01 7:45:10
3901 7049 BILLEROT Jerome C 1400 11:06:10 7:08:35
3902 5839 WORTH Elliot C 1401 11:06:26 7:47:54
3903 7527 CARVALHO RIBEIRO Paulo Renato D 798 11:06:26 7:42:43
3904 3365 DARDILLAC Nicolas B 956 11:06:39 7:08:06
3905 4061 COUTURIER Alain C 1402 11:06:47 7:35:21
3906 9683 LACHENAL Louis Xavier B 957 11:06:47 7:46:34
3907 9494 DUBUC Stephan C 1403 11:06:50 7:40:03
3908 9786 WALDUCK Shelley G 79 11:06:50 7:41:15
3909 4817 RENAUDIE Jean Marie C 1404 11:07:00 7:41:57
3910 1119 QUINN Ciaran D 799 11:07:01 8:11:54
3911 2840 SLAGMULDER Eric C 1405 11:07:03 7:53:12
3912 2702 BRULÉ Christophe C 1406 11:07:03 7:28:45
3913 3421 TEBOUL Frederic D 800 11:07:04 7:58:13
3914 2613 WYLLIE Malcolm C 1407 11:07:05 8:03:28
3915 3471 BOIRON Laurent C 1408 11:07:07 7:39:05
3916 5337 PINSIVY Thierry C 1409 11:07:10 8:12:59
3917 5423 BESSON François D 801 11:07:13 7:31:29
3918 7131 GARNIER Frederic C 1410 11:07:15 7:59:23
3919 3372 TROUCHE Stephane C 1411 11:07:18 7:18:34
3920 3979 COET TOMATIS Nathalie G 80 11:07:22 7:52:37
3921 4003 DOMINIC Casciani C 1412 11:07:28 7:47:00
3922 2902 ALLARY Michel E 263 11:07:31 7:53:50
3923 6907 GALASSI Fabrice D 802 11:07:36 7:47:26
3924 3152 TESSIER Gérald A 362 11:07:40 7:53:37
3925 7072 BERNARD Laurent C 1413 11:07:41 7:03:53
3926 2094 BRAULT Patrick D 803 11:07:44 8:03:39
3927 5879 CROUCH Mark B 958 11:07:53 8:02:19
3928 6620 GODET Jeremy A 363 11:07:56 8:03:16
3929 7045 TIDMARSH Ralph B 959 11:07:59 7:59:29
3930 7883 CARTIGNY Christophe D 804 11:08:13 8:11:16
3931 6309 BERRIGAN Thomas D 805 11:08:15 7:50:53
3932 3259 SCHNELL Yves D 806 11:08:20 7:24:23
3933 8833 PRANKARD Simon C 1414 11:08:22 8:05:52
3934 87 SULLIVAN Patrick D 807 11:08:36 7:41:29
3935 3840 BALCEREK Bernard D 808 11:08:36 8:03:08
3936 7551 HERIOT Andrew C 1415 11:08:39 7:54:36
3937 4446 THOMAS David D 809 11:08:49 8:17:43
3938 4376 TERRY Karl C 1416 11:08:56 7:19:06
3939 9027 AUBERT Benoît B 960 11:09:03 8:25:57
3940 9768 LAMENDIN Frederic C 1417 11:09:11 7:36:34
3941 3854 POWELL Alex C 1418 11:09:19 7:44:56
3942 3990 HOGUIN Daniel C 1419 11:09:29 8:22:55
3943 8159 RAY III James B 961 11:09:35 8:08:45
3944 7769 MCKERNAN Eoghan B 962 11:09:37 7:37:41
3945 9704 O’DRISCOLL Padraig B 963 11:09:38 7:34:09
3946 3409 KAARMANN Kristo B 964 11:09:39 8:05:40
3947 9594 HARDWICK Neil D 810 11:09:41 7:38:51
3948 7705 WONG Michael A 364 11:09:45 7:19:02
3949 7698 MERLET Frederic B 965 11:09:47 7:09:07
3950 4606 POMMIER Hubert E 264 11:09:49 7:50:35
3951 3452 BIENVENU Jean-David C 1420 11:09:49 6:58:45
3952 6351 GAUDRY Daniel D 811 11:09:50 7:50:41
3953 2297 VACARESSE Michel D 812 11:09:52 7:55:23
3954 2296 PICARD Jean-Michel C 1421 11:09:54 8:03:57
3955 4011 CHEVALIER Jean-Eric B 966 11:09:55 7:46:09
3956 1619 WINTERFLOOD Guy C 1422 11:09:55 8:08:10
3957 3868 CARTIER Patrick E 265 11:09:56 7:58:05
3958 9222 DANKO Vincent C 1423 11:10:04 8:10:08
3959 3561 HURSTEL Vincent D 813 11:10:06 7:47:38
3960 6684 SWZED Andrew E 266 11:10:09 7:31:23
3961 6413 LE TOUZE Henri E 267 11:10:16 7:42:10
3962 7270 BACHMANN Roland C 1424 11:10:18 8:02:58
3963 5942 ANTSCHERL Jeremy C 1425 11:10:22 7:41:14
3964 9433 KING Simon B 967 11:10:31 7:04:08
3965 7255 BALAUD Sylvain C 1426 11:10:33 8:20:17
3966 1951 VEYROND Gilbert D 814 11:10:39 8:02:42
3967 7606 COUSIN Marc D 815 11:10:44 7:36:35
3968 7879 RAI Amarjit C 1427 11:10:51 7:53:26
3969 8157 JOUSSE Dominique D 816 11:11:02 7:58:48
3970 4762 DALBY Darren C 1428 11:11:11 7:39:48
3971 9606 VIGOUROUX Jean-Christophe C 1429 11:11:25
3972 8927 GIUSTI Jean Marc D 817 11:11:27 7:31:27
3973 9422 HALIMI Gilles C 1430 11:11:31 7:24:49
3974 7560 GALLAGHER Stan D 818 11:11:32 8:18:43
3975 84 BURKE John D 819 11:11:33 7:51:56
3976 91 WORGULL Tania G 81 11:11:39 7:48:28
3977 8203 REED Neville D 820 11:11:51 7:57:46
3978 4833 DEFFONTAINES Hugues C 1431 11:12:02 7:55:50
3979 5648 EDEN Stuart C 1432 11:12:06 8:17:17
3980 4434 PERRY Geoff D 821 11:12:08 7:57:54
3981 6066 NUCERA Francesco D 822 11:12:18 7:47:05
3982 4455 VAIDOTAS Kazlauskas C 1433 11:12:21 7:33:25
3983 8429 PAWSEY Chris C 1434 11:12:24 7:45:06
3984 9596 WALTERS Jonathan B 968 11:12:33 7:47:49
3985 9595 REDING Thomas B 969 11:12:34 7:46:47
3986 9124 VAUTHERIN Renaud C 1435 11:12:47 7:26:47
3987 6286 KERRIE Crisp G 82 11:12:53 8:02:44
3988 1109 JACQUELINE François D 823 11:13:03 8:01:58
3989 8821 COUSINS Nathan C 1436 11:13:07 8:03:41
3990 4846 IMMELT Stephen E 268 11:13:08 7:23:36
3991 8400 COX Charlie A 365 11:13:11 7:40:37
3992 3585 TRACEY Dennis D 824 11:13:12 7:32:03
3993 3273 HUNTER Toby C 1437 11:13:16 7:26:36
3994 7098 LAGACHE Christophe C 1438 11:13:17 7:39:24
3995 4382 HOYLE John B 970 11:13:21 7:28:37
3996 4719 RIDDELL Gareth C 1439 11:13:29 7:43:59
3997 4186 LORIGEON Thomas B 971 11:13:29
3998 3873 WRIGHT Andrew D 825 11:13:38 8:12:41
3999 8193 COSTE Vincent C 1440 11:13:42 7:56:20
4000 6955 ROBIN Rupert C 1441 11:13:43 8:16:23

Voir suite -> Etape du Tour 1 - 2012 : du 4001ème au 4422ème

Haut 









Haut  
 Privé-site   Auteursrecht-Copyright : klik hier om te lezen !